Showing default

FLOCK 4Q 4, 58327

Orbit data source: Space-Track

FLOCK 4Q 4, 58327 is a payload satellite owned by Planet (US) in SSO that was launched on Sat, 11 Nov 2023 UTC via an FALCON 9 launch vehicle from the Air Force Western Test Range (AFWTR). Payload-class satellites include a variety of spacecraft equipped with specific instruments for various scientific and technological missions. These include communications satellites like Starlink; space stations such as the ISS; scientific satellites like the Hubble; Earth observation satellites from companies like Planet Labs, Umbra, and HawkEye 360; GPS; miniature CubeSats for education and research; and military/defense satellites.

Loading next visibility...
Identifier
58327, 2023-174BZ
Orbit
SSO
Country
Flag of USUS
Related business
Manufacturer
Planet
Mission
Operational Commercial Imaging
Bus & Motor
CUBESAT 3U, Unknown motor
Mass
5.7 kg wet, 5.7 kg dry
Launch date (UTC)
2023-11-11 (3 years ago)
Launch vehicle
FALCON 9
Launch site
Air Force Western Test Range (AFWTR)
Object type
Payload
Rocket body
Debris
Shape & HBR
Box + 2 Pan, 1.0 m
Radar Cross Section
0.072 m², Medium (>0.1 m² and < 1m²)

Expand to show TLE details & history
Last TLE update: 9 hours ago

TLE from 9 hours ago
0 FLOCK 4Q 4
1 58327U 23174BZ  26263.52373726  .00021176  00000-0  34453-3 0  9995
2 58327  97.3776 353.6007 0005297 167.8346 192.3036 15.52681354160335
Epoch: 2026-09-20T12:34Z
TLE epoch observation values (Epoch: 2026-09-20T12:34:10.899Z)
Latitude
0.00001°
Longitude
165.6386°
Altitude
415.55 km
Speed
7.66 km/s
True Right ascension
23h 34m 24s
True Declination
0° 00' 00"
Sunlit
Object was in full shadow at epoch
Visualization orbit readout
Latitude
Unknown
Longitude
Unknown
Altitude
Unknown
Speed
Unknown
Apparent Right ascension
Unknown
Apparent Declination
Unknown
Sunlit
N/A
Visualization observer readout
Local Sidereal Time
15:02:13
Azimuth
Unknown
Elevation
Unknown
Doppler factor
Unknown
Orbital elements
Apogee altitude
409.416 km
Perigee altitude
402.229 km
Semi-major axis
6,783.959 km
Eccentricity
0.00053
Inclination
97.3776°
RAAN
353.6007°
Arg. of periapsis
167.8346°
True anomaly
192.29067°
Mean anomaly
192.3036°
Eccentric anomaly
192.29714°
Mean motion
3.88435 °/min
Orbital period
92.68 mins
BSTAR
0.00034453
Loading maneuver chart data...
Computing Atmospheric mass density...

Documentation

Showing up to 5 results
|